sat.trackr.live / text

‹ back to catalog

STARLINK-37507

NORAD 68916 · 2026-097X

PAYLOAD ACTIVE UNKNOWN

§ Identity

Operator
Country
US
Launch date
2026-04-30
Launch site
AFWTR
Launch vehicle
Mass (kg)
RCS (m²)

Purposes: comms

External: N2YO · Heavens-Above · Gunter

§ Orbital elements

Epoch: 2026-05-25T04:00:03.998880Z

Period
93.25 min
Inclination
97.2848°
Eccentricity
0.0002345
Mean motion
15.44313166 rev/d
Perigee alt
431.8 km
Apogee alt
435.0 km
Semi-major
6,811.5 km
B*
-5.4968e-2
RAAN
341.0469°
Arg perigee
77.6486°
Mean anomaly
149.8808°
Rev number
520

§ Raw data

STARLINK-375071 68916U 26097X   26145.16671295 -.02226442  00000+0 -54968-1 0  99952 68916  97.2848 341.0469 0002345  77.6486 149.8808 15.44313166  5208

JSON: /api/v1/satellites/68916 · /tle

For live sub-satellite position, see the globe view (requires WebGL).

§ Visibility from observer

Set your observer location to see the next 7 days of passes ≥ 10°. The values pass through the URL so the page stays shareable.

No JS? Fill the form by hand. The geolocation button needs JavaScript.